#timestamp,LO_Frequency,Hit,StdDev 
1456369215.2,286047008.4,N
1456369235.1,286047007.8,N
1456369236.0,286047007.8,N
1456369255.8,286047011.2,N
1456369275.6,286047011.6,N
1456369295.5,286047015.0,N
1456369315.3,286047015.6,N
1456369335.1,286047016.7,N
1456369355.9,286047015.7,N
1456369375.7,286047016.9,N
1456369395.5,286047017.3,N
1456369415.4,286047021.5,N
1456369435.2,286047020.4,N
1456369455.0,286047019.7,N
1456369455.9,286047019.7,N
1456369475.8,286047021.9,N
1456369495.6,286047021.7,N
1456369515.4,286047020.8,N
1456369535.3,286047022.1,N
1456369555.1,286047024.8,N
1456369556.0,286047024.8,N
1456369575.8,286047024.7,N
1456369595.7,286047025.4,N
1456369615.5,286047029.5,Y
1456369635.3,286047011.2,P
1456369655.2,286047014.4,P
1456369675.9,286047017.0,P
1456369695.7,286047012.9,Y
1456369715.6,286046998.1,P
1456369735.4,286046999.0,N
1456369755.2,286046998.1,N
1456369775.1,286046999.6,N
1456369776.0,286046999.6,N
1456369795.8,286046997.3,N
1456369815.6,286046996.4,N
1456369835.4,286046993.3,N
1456369855.3,286046996.1,N
1456369875.1,286046994.4,N
1456369895.8,286046995.0,N
1456369915.7,286046997.6,N
1456369935.5,286046993.5,N
1456369955.3,286046993.3,N
1456369975.2,286046997.6,N
1456369995.9,286046996.1,N
1456370015.7,286046994.8,N
1456370035.6,286046991.6,N
1456370055.4,286046988.7,N
1456370075.2,286046991.6,N
1456370095.1,286046990.8,N
1456370096.0,286046990.8,N
1456370115.8,286046990.7,N
1456370135.6,286046991.7,N
1456370155.5,286046991.0,N
1456370175.3,286046987.0,N
1456370195.1,286046986.3,N
1456370215.9,286046984.3,Y
1456370235.7,286046987.4,P
1456370255.5,286046985.8,P
1456370275.3,286046986.4,P
1456370295.2,286046990.0,N
1456370315.0,286046991.4,N
1456370315.9,286046991.4,N
1456370335.7,286046994.5,N
1456370355.6,286046991.4,N
1456370375.4,286046986.9,Y
1456370395.2,286046995.7,P
1456370415.1,286046995.3,N
1456370416.0,286046995.3,N
1456370435.8,286046996.2,N
1456370455.6,286046994.0,N
1456370475.5,286046995.2,N
1456370495.3,286046994.5,Y
1456370515.1,286047001.2,P
1456370535.9,286046997.3,N
1456370555.7,286046996.6,N
1456370575.5,286046996.4,N
1456370595.4,286046995.4,N
1456370615.2,286046997.8,N
1456370635.0,286046995.5,N
1456370635.9,286046995.5,N
1456370655.8,286046991.8,Y
1456370675.6,286046997.6,P
1456370695.4,286046998.8,N
1456370715.3,286046998.8,N
1456370735.1,286047001.2,N
1456370736.0,286047001.2,N
1456370755.8,286046999.6,N
1456370775.7,286046998.3,N
1456370795.5,286047002.7,N
1456370815.3,286047000.4,N
1456370835.2,286047000.5,N
1456370855.9,286046999.1,N
1456370875.7,286046997.2,N
1456370895.5,286046995.4,N
1456370915.4,286046994.0,Y
1456370935.2,286046993.7,P
1456370955.0,286046995.9,N
1456370956.0,286046995.9,N
1456370975.8,286046995.1,N
1456370995.6,286046998.0,N
1456371015.4,286046996.2,N
1456371035.3,286047000.8,N
1456371055.1,286046999.8,N
1456371075.8,286046999.3,N
1456371095.7,286047000.7,N
1456371115.5,286047001.0,N
1456371135.3,286047002.7,N
1456371155.2,286047003.7,N
1456371175.9,286047005.4,N
1456371195.7,286047008.9,N
1456371215.6,286047008.8,N
1456371235.4,286047009.6,N
1456371255.2,286047010.2,N
1456371275.0,286047012.3,N
1456371275.9,286047012.3,N
1456371295.8,286047011.8,N
1456371315.6,286047011.5,N
1456371335.4,286047010.2,N
1456371355.3,286047013.7,N
1456371375.1,286047015.1,N
1456371395.8,286047013.6,N
1456371415.7,286047012.7,N
1456371435.5,286047016.8,N
1456371455.3,286047020.3,N
1456371475.2,286047017.1,N
1456371495.9,286047012.6,N
1456371515.7,286047015.2,N
1456371535.6,286047016.3,N
1456371555.4,286047019.2,N
1456371575.2,286047020.9,Y
1456371595.1,286047013.2,P
1456371596.0,286047013.2,P
1456371615.8,286047010.9,P
1456371635.6,286047010.9,Y
1456371655.5,286047002.1,P
1456371675.3,286047003.7,N
1456371695.1,286047004.3,N
1456371715.8,286047003.6,N
1456371735.7,286047006.0,N
1456371755.5,286047004.4,N
1456371775.3,286047001.5,N
1456371795.2,286047003.4,N
1456371815.9,286047005.6,N
1456371835.7,286047002.6,N
1456371855.6,286047002.0,N
1456371875.4,286047002.3,N
1456371895.2,286047002.2,N
1456371915.1,286047003.8,N
1456371916.0,286047003.8,N
1456371935.8,286047001.3,N
1456371955.6,286046998.5,N
1456371975.5,286046998.1,N
1456371995.3,286047001.8,N
1456372015.1,286047001.3,N
1456372035.8,286047000.5,N
1456372055.7,286047000.6,N
1456372075.5,286047000.1,N
1456372095.3,286047001.1,N
1456372115.2,286047001.9,N
1456372135.0,286047004.6,N
1456372135.9,286047004.6,N
1456372155.7,286047004.4,N
1456372175.6,286046999.7,N
1456372195.4,286047002.8,N
1456372215.2,286047002.0,N
1456372235.1,286047003.9,N
1456372236.0,286047003.9,N
1456372255.8,286047003.3,N
1456372275.6,286047002.0,N
1456372295.5,286047003.8,N
1456372315.3,286047003.4,N
1456372335.1,286047003.4,N
1456372355.9,286047007.4,Y
1456372375.7,286047004.4,P
1456372395.5,286047004.4,P
1456372415.4,286047003.5,P
1456372435.2,286047001.8,N
1456372455.0,286047005.2,Y
1456372455.9,286047005.2,P
1456372475.8,286046998.9,N
1456372495.6,286046997.3,N
1456372515.4,286046995.4,N
1456372535.3,286046997.5,N
1456372555.1,286046995.3,N
1456372556.0,286046995.3,N
1456372575.8,286046998.4,N
1456372595.7,286046997.8,N
1456372615.5,286046998.9,N
1456372635.3,286047001.2,N
1456372655.1,286046998.8,N
1456372675.9,286046998.7,N
1456372695.7,286047000.7,N
1456372715.5,286047005.2,N
1456372735.4,286047004.1,N
1456372755.2,286047003.8,N
1456372775.0,286047004.0,N
1456372775.9,286047004.0,N
1456372795.8,286046999.7,N
